This demonstration page uses our WeatherBlox Daily Observations layout. Learn more.

Left ArrowRight Arrow

Hourly Observations for March 23, 2022

Temp ( °F °C ) Dew Point ( °F °C ) Humidity (%) Winds ( mph kmh ) Pressure ( in mb ) Visibility ( mi km ) Precip ( " mm )
12:53 am 00:53 Clear 38 3.3 17 -8.3 43 43 NW 8 13 30.10 1019 10 16 0.00 0.00
1:53 am 01:53 Clear 35 1.7 16 -8.9 46 46 WNW 8 13 30.09 1019 10 16 0.00 0.00
2:53 am 02:53 Clear 34 1.1 14 -10 44 44 WNW 6 9 30.11 1020 10 16 0.00 0.00
3:53 am 03:53 Clear 33 0.6 14 -10 45 45 WNW 7 11 30.10 1019 10 16 0.00 0.00
4:53 am 04:53 Clear 32 0 14 -10 47 47 NW 9 15 30.11 1020 10 16 0.00 0.00
5:53 am 05:53 Clear 31 -0.6 14 -10 49 49 N 7 11 30.12 1020 10 16 0.00 0.00
6:53 am 06:53 Clear 31 -0.6 15 -9.4 52 52 NNW 7 11 30.14 1021 10 16 0.00 0.00
7:53 am 07:53 Sunny 31 -0.6 16 -8.9 54 54 N 6 9 30.16 1021 10 16 0.00 0.00
8:53 am 08:53 Sunny 39 3.9 20 -6.7 46 46 N 8 13 30.16 1021 10 16 0.00 0.00
9:53 am 09:53 Sunny 46 7.8 22 -5.6 38 38 N 16 26 30.16 1022 10 16 0.00 0.00
10:53 am 10:53 Sunny 51 10.6 21 -6.1 31 31 N 18 30 30.16 1021 10 16 0.00 0.00
11:53 am 11:53 Sunny 54 12.2 18 -7.8 24 24 N 14 22 30.15 1021 10 16 0.00 0.00
12:53 pm 12:53 Sunny 57 13.9 12 -11.1 17 17 N 12 19 30.11 1020 10 16 0.00 0.00
1:53 pm 13:53 Sunny 59 15 9 -12.8 13 13 NNW 17 28 30.08 1019 10 16 0.00 0.00
2:43 pm 14:43 Sunny 58 14.4 9 -12.8 14 14 W 10 17 30.03 1017 10 16 0.00 0.00
2:53 pm 14:53 Sunny 61 16.1 9 -12.8 13 13 WNW 20 31 30.04 1017 10 16 0.00 0.00
3:53 pm 15:53 Mostly Sunny 62 16.7 10 -12.2 13 13 NW 20 31 30.01 1016 10 16 0.00 0.00
4:53 pm 16:53 Mostly Sunny 62 16.7 10 -12.2 13 13 WNW 14 22 30.01 1016 10 16 0.00 0.00
5:53 pm 17:53 Sunny 62 16.7 8 -13.3 12 12 NW 14 22 29.98 1015 10 16 0.00 0.00
6:53 pm 18:53 Partly Cloudy 60 15.6 10 -12.2 14 14 WNW 20 31 29.99 1016 10 16 0.00 0.00
7:53 pm 19:53 Mostly Sunny 58 14.4 16 -8.9 19 19 W 12 19 30.01 1016 10 16 0.00 0.00
8:53 pm 20:53 Clear 54 12.2 15 -9.4 21 21 W 7 11 30.02 1017 10 16 0.00 0.00
9:53 pm 21:53 Clear 48 8.9 13 -10.6 24 24 W 9 15 30.03 1017 10 16 0.00 0.00
10:53 pm 22:53 Clear 44 6.7 11 -11.7 26 26 NNW 5 7 30.04 1017 10 16 0.00 0.00
11:53 pm 23:53 Clear 43 6.1 10 -12.2 26 26 N 6 9 30.05 1018 10 16 0.00 0.00

Powered by AerisWeather